TimeCDT,TemperatureF,Dew PointF,Humidity,Sea Level PressureIn,VisibilityMPH,Wind Direction,Wind SpeedMPH,Gust SpeedMPH,PrecipitationIn,Events,Conditions,WindDirDegrees,DateUTC
12:15 AM,50.9,30.9,46,30.05,10.0,ENE,3.5,-,N/A,,Clear,70,2013-03-28 05:15:00
12:35 AM,43.5,31.6,63,30.05,10.0,Calm,Calm,-,N/A,,Clear,0,2013-03-28 05:35:00
12:55 AM,47.5,31.3,53,30.05,10.0,Calm,Calm,-,N/A,,Clear,0,2013-03-28 05:55:00
1:15 AM,47.1,31.6,55,30.05,10.0,Calm,Calm,-,N/A,,Clear,0,2013-03-28 06:15:00
1:35 AM,43.9,32.0,63,30.05,10.0,Calm,Calm,-,N/A,,Clear,0,2013-03-28 06:35:00
1:55 AM,43.3,32.0,64,30.05,10.0,Calm,Calm,-,N/A,,Clear,0,2013-03-28 06:55:00
2:15 AM,44.8,32.0,61,30.05,10.0,Calm,Calm,-,N/A,,Clear,0,2013-03-28 07:15:00
2:35 AM,41.2,32.0,70,30.05,10.0,Calm,Calm,-,N/A,,Clear,0,2013-03-28 07:35:00
2:55 AM,41.9,32.2,68,30.04,10.0,Calm,Calm,-,N/A,,Clear,0,2013-03-28 07:55:00
3:15 AM,41.2,32.4,71,30.04,10.0,Calm,Calm,-,N/A,,Clear,0,2013-03-28 08:15:00
3:35 AM,41.5,32.5,70,30.04,10.0,Calm,Calm,-,N/A,,Clear,0,2013-03-28 08:35:00
3:55 AM,41.9,33.3,71,30.03,10.0,Calm,Calm,-,N/A,,Clear,0,2013-03-28 08:55:00
4:15 AM,39.6,32.7,76,30.03,10.0,Calm,Calm,-,N/A,,Clear,0,2013-03-28 09:15:00
4:35 AM,39.7,33.1,77,30.03,10.0,Calm,Calm,-,N/A,,Clear,0,2013-03-28 09:35:00
4:55 AM,40.6,33.6,76,30.03,10.0,Calm,Calm,-,N/A,,Clear,0,2013-03-28 09:55:00
5:15 AM,40.5,33.3,75,30.04,10.0,Calm,Calm,-,N/A,,Clear,0,2013-03-28 10:15:00
5:35 AM,39.4,33.4,79,30.04,10.0,Calm,Calm,-,N/A,,Clear,0,2013-03-28 10:35:00
5:55 AM,39.2,33.4,80,30.04,10.0,Calm,Calm,-,N/A,,Clear,0,2013-03-28 10:55:00
6:15 AM,38.5,33.4,82,30.04,10.0,Calm,Calm,-,N/A,,Clear,0,2013-03-28 11:15:00
6:35 AM,36.5,32.2,84,30.05,10.0,Calm,Calm,-,N/A,,Clear,0,2013-03-28 11:35:00
6:55 AM,36.3,32.4,86,30.05,10.0,Calm,Calm,-,N/A,,Clear,0,2013-03-28 11:55:00
7:15 AM,36.0,32.4,87,30.05,10.0,Calm,Calm,-,N/A,,Clear,0,2013-03-28 12:15:00
7:35 AM,37.9,33.8,85,30.06,10.0,Calm,Calm,-,N/A,,Clear,0,2013-03-28 12:35:00
7:55 AM,37.8,33.8,86,30.06,10.0,Calm,Calm,-,N/A,,Clear,0,2013-03-28 12:55:00
8:15 AM,37.9,34.5,87,30.07,10.0,Calm,Calm,-,N/A,,Clear,0,2013-03-28 13:15:00
8:35 AM,37.4,34.7,90,30.07,10.0,Calm,Calm,-,N/A,,Clear,0,2013-03-28 13:35:00
8:55 AM,38.8,35.6,88,30.09,10.0,Calm,Calm,-,N/A,,Clear,0,2013-03-28 13:55:00
9:15 AM,42.1,36.9,82,30.09,10.0,Calm,Calm,-,N/A,,Clear,0,2013-03-28 14:15:00
9:35 AM,43.7,36.7,76,30.09,10.0,Calm,Calm,-,N/A,,Clear,0,2013-03-28 14:35:00
9:55 AM,45.5,37.6,74,30.09,10.0,Calm,Calm,-,N/A,,Clear,0,2013-03-28 14:55:00
10:15 AM,46.6,38.3,73,30.09,10.0,Calm,Calm,-,N/A,,Clear,0,2013-03-28 15:15:00
10:35 AM,49.1,39.6,70,30.09,10.0,NNE,3.5,-,N/A,,Clear,30,2013-03-28 15:35:00
10:55 AM,50.5,40.3,68,30.09,10.0,Calm,Calm,-,N/A,,Clear,0,2013-03-28 15:55:00
11:15 AM,52.3,41.2,66,30.09,10.0,Calm,Calm,-,N/A,,Clear,0,2013-03-28 16:15:00
11:35 AM,53.2,41.9,65,30.09,10.0,Calm,Calm,-,N/A,,Clear,0,2013-03-28 16:35:00
11:55 AM,54.9,42.8,64,30.09,10.0,Calm,Calm,-,N/A,,Clear,0,2013-03-28 16:55:00
12:15 PM,55.8,42.8,62,30.09,10.0,Calm,Calm,-,N/A,,Clear,0,2013-03-28 17:15:00
12:35 PM,57.9,43.0,58,30.09,10.0,North,3.5,-,N/A,,Clear,10,2013-03-28 17:35:00
12:55 PM,58.6,42.8,56,30.08,10.0,West,3.5,-,N/A,,Clear,280,2013-03-28 17:55:00
1:15 PM,60.1,42.8,53,30.07,10.0,NNE,3.5,-,N/A,,Clear,30,2013-03-28 18:15:00
1:35 PM,61.3,43.0,51,30.06,10.0,NNW,4.6,-,N/A,,Clear,330,2013-03-28 18:35:00
1:55 PM,62.2,43.3,50,30.05,10.0,NNE,3.5,-,N/A,,Clear,20,2013-03-28 18:55:00
2:15 PM,63.9,43.5,48,30.05,10.0,North,3.5,-,N/A,,Clear,360,2013-03-28 19:15:00
2:35 PM,65.8,43.7,45,30.04,10.0,SW,8.1,-,N/A,,Clear,220,2013-03-28 19:35:00
2:55 PM,67.3,43.5,42,30.03,10.0,South,4.6,-,N/A,,Clear,190,2013-03-28 19:55:00
3:15 PM,67.5,43.2,41,30.02,10.0,South,6.9,-,N/A,,Clear,190,2013-03-28 20:15:00
3:35 PM,69.3,43.7,40,30.02,10.0,WSW,5.8,-,N/A,,Clear,240,2013-03-28 20:35:00
3:55 PM,68.9,44.1,41,30.01,10.0,Calm,Calm,-,N/A,,Clear,0,2013-03-28 20:55:00
4:15 PM,71.1,42.8,36,30.00,10.0,SE,4.6,-,N/A,,Clear,140,2013-03-28 21:15:00
4:35 PM,70.9,43.3,37,30.00,10.0,ESE,3.5,-,N/A,,Clear,120,2013-03-28 21:35:00
4:55 PM,71.8,43.2,36,30.00,10.0,SSW,6.9,-,N/A,,Clear,200,2013-03-28 21:55:00
5:15 PM,72.5,42.4,34,29.99,10.0,WSW,6.9,-,N/A,,Clear,240,2013-03-28 22:15:00
5:35 PM,72.0,42.8,35,29.99,10.0,SW,3.5,-,N/A,,Clear,220,2013-03-28 22:35:00
5:55 PM,72.5,43.3,35,29.98,10.0,SSW,3.5,-,N/A,,Clear,210,2013-03-28 22:55:00
6:15 PM,72.5,42.4,34,29.99,10.0,WSW,4.6,-,N/A,,Clear,240,2013-03-28 23:15:00
6:35 PM,72.1,42.4,34,29.99,10.0,Calm,Calm,-,N/A,,Clear,0,2013-03-28 23:35:00
6:55 PM,71.8,43.2,36,29.99,10.0,South,3.5,-,N/A,,Clear,170,2013-03-28 23:55:00
7:15 PM,71.2,42.6,36,30.00,10.0,SSE,3.5,-,N/A,,Clear,150,2013-03-29 00:15:00
7:35 PM,70.5,44.1,39,30.00,10.0,South,4.6,-,N/A,,Clear,170,2013-03-29 00:35:00
7:55 PM,69.1,44.4,41,30.01,10.0,SSE,3.5,-,N/A,,Clear,160,2013-03-29 00:55:00
8:15 PM,66.2,44.1,45,30.02,10.0,SSE,3.5,-,N/A,,Clear,150,2013-03-29 01:15:00
8:35 PM,63.7,43.9,48,30.02,10.0,Calm,Calm,-,N/A,,Clear,0,2013-03-29 01:35:00
8:55 PM,57.4,42.8,58,30.03,10.0,Calm,Calm,-,N/A,,Clear,0,2013-03-29 01:55:00
9:15 PM,56.1,42.4,60,30.03,10.0,Calm,Calm,-,N/A,,Clear,0,2013-03-29 02:15:00
9:35 PM,55.6,42.8,62,30.03,10.0,Calm,Calm,-,N/A,,Clear,0,2013-03-29 02:35:00
9:55 PM,57.6,43.0,58,30.04,10.0,Calm,Calm,-,N/A,,Clear,0,2013-03-29 02:55:00
10:15 PM,56.5,42.8,60,30.04,10.0,Calm,Calm,-,N/A,,Clear,0,2013-03-29 03:15:00
10:35 PM,56.3,43.2,61,30.05,10.0,Calm,Calm,-,N/A,,Clear,0,2013-03-29 03:35:00
10:55 PM,52.9,42.3,67,30.06,10.0,Calm,Calm,-,N/A,,Clear,0,2013-03-29 03:55:00
11:15 PM,53.1,42.8,68,30.05,10.0,Calm,Calm,-,N/A,,Clear,0,2013-03-29 04:15:00
11:35 PM,53.8,43.3,68,30.05,10.0,Calm,Calm,-,N/A,,Clear,0,2013-03-29 04:35:00
11:55 PM,47.3,41.7,81,30.04,10.0,Calm,Calm,-,N/A,,Clear,0,2013-03-29 04:55:00